Location: Hoover
(45.1124°N, 103.2678°W)
Time: 03:02:40
(UTC+00:00)

N. Korean satellite - Pass Details

Date: 29 November 2020
Orbit: 453 x 502 km, 97.2° (Epoch: 16 January)

Event Time Altitude Azimuth Distance (km) Brightness Sun altitude
Rises 11:19:33 0° 32° (NNE) 2,559 10.6 -29.4°
Maximum altitude 11:24:23 13° 91° (E) 1,480 9.9 -28.5°
Drops below altitude 10° 11:26:15 10° 122° (ESE) 1,688 10.0 -28.2°
Sets 11:29:14 0° 150° (SSE) 2,572 10.7 -27.7°
